Regional Weather Roundup
Issued by NWS Charleston, SC

Home | Current Version | Previous Version | Text Only | Print | Product List | Glossary On
Versions: 1 2 3 4 5 6 7 8 9 10 11 12 13 14 15 16 17 18 19 20 21 22 23 24 25 26 27 28 29 30 31 32 33 34 35 36 37 38 39 40 41 42 43 44 45 46 47 48 49 50
000
ASUS42 KCHS 251825
RWRCHS

REGIONAL WEATHER ROUNDUP
NATIONAL WEATHER SERVICE CHARLESTON SC
100 PM EST THU DEC 25 2014

NOTE: "FAIR" INDICATES FEW OR NO CLOUDS BELOW 12,000 FEET WITH NO
SIGNIFICANT WEATHER AND/OR OBSTRUCTIONS TO VISIBILITY.

NOT ALL STATIONS ARE QUALITY CONTROLLED BY THE NATIONAL
WEATHER SERVICE. USE DATA WITH CAUTION...ESPECIALLY
DEWPOINT OBSERVATIONS.

SCZ027-030-031-034>040-042>050-251900-
...SOUTHEAST SOUTH CAROLINA...

CITY           SKY/WX    TMP DP  RH WIND       PRES   REMARKS
N CHARLESTON   MOSUNNY   58  38  47 NW10      30.12F
6HR MIN TEMP:  52; 6HR MAX TEMP:  58;

WATERFRONT PRK   N/A     55 N/A N/A W7G13       N/A
MOUNT PLEASANT FAIR      57  41  54 W9        30.12F
PINOPOLIS        N/A     55  43  62 NW9       30.06R
MONCKS CORNER  FAIR      59  41  51 N8        30.11F
SUMMERVILLE    FAIR      59  41  51 W7        30.13S
BEAUFORT MCAS  MOSUNNY   57  38  48 W14       30.15F
6HR MIN TEMP:  52; 6HR MAX TEMP:  57;

BEAUFORT ARPT  FAIR      55  41  58 W10       30.15S
HILTON HEAD IS SUNNY     54  39  58 SW9       30.17S
WALTERBORO     CLEAR     59  32  36 W12       30.13F
ALLENDALE      FAIR      57  37  47 CALM      30.14S

...SOUTHERN MIDLANDS AND PEE DEE...

CITY           SKY/WX    TMP DP  RH WIND       PRES   REMARKS
GEORGETOWN     NOT AVBL
KINGSTREE      NOT AVBL
ORANGEBURG     SUNNY     57  37  47 W12G17    30.13F
6HR MIN TEMP:  50; 6HR MAX TEMP:  57;

BARNWELL       FAIR      57  37  47 W9        30.15F
AIKEN          FAIR      55  36  47 W9        30.17F
MANNING        FAIR      59  41  51 W6        30.12S
COLUMBIA       SUNNY     57  38  48 NW10      30.13F
6HR MIN TEMP:  49; 6HR MAX TEMP:  57;

SUMTER         SUNNY     58  39  48 W9        30.10S
6HR MIN TEMP:  49; 6HR MAX TEMP:  58;

FLORENCE       SUNNY     59  41  51 NW9       30.09F
6HR MIN TEMP:  51; 6HR MAX TEMP:  59;

MYRTLE BEACH   SUNNY     57  43  58 NW12      30.10
N MYRTLE BEACH MOSUNNY   58  43  57 NW8       30.08F
6HR MIN TEMP:  53; 6HR MAX TEMP:  58;


$$

GAZ063-065-086>088-099>101-113>116-118-119-134>141-150-251900-
...SOUTHEAST GEORGIA...

CITY           SKY/WX    TMP DP  RH WIND       PRES   REMARKS
SAVANNAH ARPT  MOSUNNY   57  37  47 W9        30.17F
6HR MIN TEMP:  51; 6HR MAX TEMP:  57;

HUNTER AAF     MOSUNNY   57  41  54 NW10      30.15F
6HR MIN TEMP:  51; 6HR MAX TEMP:  57;

FORT STEWART   MOSUNNY   57  38  49 W7        30.16F
6HR MIN TEMP:  51; 6HR MAX TEMP:  57;

STATESBORO     SUNNY     56  39  52 NW13      30.17S
SYLVANIA       CLEAR     56  42  58 NW13      30.17F
CLAXTON        FAIR      57  41  54 W9        30.18S

...CSRA...CENTRAL AND FAR SOUTHEAST GEORGIA...

CITY           SKY/WX    TMP DP  RH WIND       PRES   REMARKS
THOMSON        SUNNY     55  41  58 W8        30.21S
AUGUSTA-BUSH   SUNNY     55  34  45 NW6       30.17F
6HR MIN TEMP:  47; 6HR MAX TEMP:  55;

AUGUSTA-DANIEL SUNNY     54  35  48 VRB7      30.16F
SWAINSBORO     FAIR      57  43  58 NW6       30.18F
VIDALIA        SUNNY     55  37  50 NW8       30.19F
EASTMAN        FAIR      56  38  51 W8        30.22F
HAZLEHURST     FAIR      58  38  48 NW6       30.19S
ALMA           SUNNY     56  37  49 NW9       30.19F
6HR MIN TEMP:  50; 6HR MAX TEMP:  56;

WAYCROSS       SUNNY     60  41  50 N6        30.20S
JESUP          FAIR      61  43  51 W9        30.19S
BAXLEY         FAIR      57  37  47 W9        30.19S
BRUNSWICK      CLOUDY    54  41  62 W10G16    30.19F
SAINT SIMONS   CLOUDY    53  40  61 W7        30.19F
6HR MIN TEMP:  53; 6HR MAX TEMP:  54;


$$

SCZ027-028-034-036>038-045-046-048>050-GAZ119-141-251900-
...LAKE AND SUPPLEMENTAL COASTAL OBSERVATIONS...

STATION/POSITION TIME  TEMP    WIND        PRES    WAVE   SWELL
                       AIR SEA DIR/SP/G            HT/PER HT/PER/DIR
                 (UTC) (F)     (DEG/KT/KT) (MB)    (FT/S) (FT/S/D)
UPR LAKE MARION  NOT AVBL
WINYAH BAY       1800   54     270/  8     1019.0S
LAKE MURRAY      1800   53     270/ 10/ 12 1020.0R
ACE BASIN NERRS  1800   55     310/  4     1021.0S
FORT PULASKI     1800   53 56  240/  6/  9 1021.8F
SAPELO ISLAND    1800   52     290/  9     1022.0S

$$

ANZ835-935-AMZ111-154-330-350-352-354-370-450-454-472-251900-
...C-MAN AND BUOY OBSERVATIONS...

STATION/POSITION TIME  TEMP    WIND        PRES    WAVE   SWELL
                       AIR SEA DIR/SP/G            HT/PER HT/PER/DIR
                 (UTC) (F)     (DEG/KT/KT) (MB)    (FT/S) (FT/S/D)
BUOY 41004       1800   56 72  290/ 14/ 17 1019.3F   5/ 6   2/ 7
BUOY 41008       1800   53 59  310/ 14/ 16 1021.5F   2/ 3
FOLLY BEACH CMAN 1800   53     240/  3/  5 1020.9F
CAPERS NEARSHORE 1700   53     290/ 14/ 16   N/A
FRIPP NEARSHORE  NOT AVBL


STATION/POSITION TIME  TEMP    WIND        PRES    WAVE   SWELL
                       AIR SEA DIR/SP/G            HT/PER HT/PER/DIR
                 (UTC) (F)     (DEG/KT/KT) (MB)    (FT/S) (FT/S/D)
5E ST. MARYS GA  1800      61                N/A     2/11
FRYING PAN BUOY  1800   56 71  300/ 16/ 19 1018.5R   7/ 6   2/190/ 8
BUOY 41025       1800   59                 1015.9R   7/ 9
CAPE LOOKOUT NC  1800   56     270/ 13/ 15 1016.6F
BUOY 41002       1658   72 73  290/ 17/ 23 1018.0R   9/ 8   3/250/ 9
BUOY 41010       1800   70 77  330/ 17/ 23 1020.4F   6/ 6   2/ 60/10
ST AUGUSTINE FL  1800   56     320/  9/ 12 1022.9F


$$


USA.gov is the U.S. government's official web portal to all federal, state and local government web resources and services.